Location: Kellogg
(38.0159°N, 90.0546°W)
Time: 14:25:30
(UTC+00:00)

ARIANE 6 FM1 Upper Stage - Pass Details

Date: 24 January 2026
Orbit: 522 x 609 km, 62.0° (Epoch: 8 February)

Event Time Altitude Azimuth Distance (km) Brightness Sun altitude
Rises 01:33:35 0° 259° (W) 2,707 7.4 -27.5°
Reaches altitude 10° 01:36:40 10° 284° (WNW) 1,799 6.1 -28.1°
Maximum altitude 01:38:58 15° 319° (NW) 1,515 5.2 -28.5°
Enters shadow 01:39:40 14° 330° (NNW) 1,540 5.1 -28.7°
